Flag for Switzerland Weather past 2 weeks in Olten, Solothurn, Switzerland

Now
37 °F

Chilly.


Feels Like: 34 °F
Forecast: 35 / 41 °F
Wind: 3 mph from Southwest

Location: Wynau

Current Time: Mar 3, 2015 at 4:51:09 AM

Latest Report: Mar 3, 2015 at 3:00 AM


Visibility: N/A

Pressure: 30.27 "Hg

Humidity: 68%

Dew point: 27 °F

Location of OltenLocation

Historic Weather in Olten — Graph

°F

Olten temperature yesterday

Maximum temperature yesterday: 49 °F (at 11:00 AM)
Minimum temperature yesterday: 41 °F (at 11:00 PM)
Average temperature yesterday: 46 °F

Past Weeks' High & Low Weather Summary

 TemperatureHumidityPressure
High50 °F (Feb 20, 4:00 PM)100% (Feb 20, 5:00 AM)30.73 "Hg (Feb 20, 5:00 AM)
Low23 °F (Feb 20, 7:00 AM)38% (Feb 26, 4:00 PM)29.62 "Hg (Feb 21, 10:00 AM)
Average35 °F86%30.09 "Hg
* Reported Feb 16 3:00 AM — Mar 3 3:00 AM, Olten, Weather by CustomWeather, © 2015

Note: Actual official high and low records may vary slightly from our data, if they occured in-between our weather recording intervals... More about our weather records

Advertising

Olten weather history for previous 24 hours

 ConditionsComfort  
Time TempWeatherWind HumidityBarometerVisibility
3:00 AM
Tue, Mar 3
37 °FChilly.3 mph68%30.27 "HgN/A
2:00 AM37 °FChilly.3 mph69%30.27 "HgN/A
1:00 AM37 °FChilly.3 mph71%30.27 "HgN/A
12:00 AM38 °FChilly.2 mph67%30.25 "HgN/A
11:00 PM
Mon, Mar 2
41 °FQuite cool.7 mph55%30.23 "HgN/A
9:00 PM44 °FQuite cool.14 mph57%30.14 "HgN/A
8:00 PM46 °FCool.10 mph56%30.08 "HgN/A
7:00 PM45 °FCool.13 mph61%30.05 "HgN/A
6:00 PM46 °FCool.13 mph57%30.01 "HgN/A
5:00 PM47 °FCool.14 mph57%29.98 "HgN/A
4:00 PM47 °FCool.12 mph59%29.95 "HgN/A
3:00 PM47 °FCool.14 mph64%29.93 "HgN/A
2:00 PM47 °FCool.15 mph69%29.92 "HgN/A
1:00 PM45 °FCool.7 mph78%29.92 "HgN/A
12:00 PM43 °FQuite cool.10 mph80%29.93 "HgN/A
11:00 AM49 °FCool.9 mph70%29.84 "HgN/A
10:00 AM47 °FCool.5 mph79%29.85 "HgN/A
9:00 AM48 °FCool.10 mph77%29.83 "HgN/A
8:00 AM47 °FCool.9 mph89%29.80 "HgN/A
7:00 AM47 °FCool.12 mph86%29.78 "HgN/A
6:00 AM48 °FCool.7 mph94%29.79 "HgN/A
5:00 AM47 °FCool.7 mph94%29.79 "HgN/A
4:00 AM48 °FCool.9 mph94%29.79 "HgN/A
Weather by CustomWeather, © 2015

See weather overviewHow to use our weather pages